Content
SEND FEEDBACK

Daily
Averages
Monthly
Summary
Brazil

CUIABA, MATO GROSSO


Home > South America > Brazil > Mato Grosso
Elevation: 623 feet     Latitude: 15 38S     Longitude: 056 06W

WEATHER
 
SELECT A DAY
Number of Records: 171,625;   Date Range: 6/30/96 - 11/22/14
 
SHARE

PRINT THIS DATA

[ ← Previous Day ]
WEATHER ALMANAC - OCTOBER 9, 2013
[ Next Day → ]
[ °C ]   °F
Weather ElementAverageHighLow
Temperature81.2 °F96.8 °F (12:00 pm)73.4 °F (3:00 pm)
Dewpoint65.8 °F69.8 °F (7:00 pm)60.8 °F (5:00 pm)
Humidity59.9 %83 % (7:00 pm)34 % (12:00 pm)
Barometer26.78 in29.95 in (8:00 am) (7:00 pm)
Wind Speed9.9 mph23 mph (2:00 pm)
Wind Gust34.5 mph (2:00 pm)
Weather ElementAverage
Visibility6.7 mi
Wind DirectionWSW (241.8 °)

Weather ElementTotal
Precipitation---
Cooling Degree Days20.1 (Base 65)
Growing Degree Days35.1 (Base 50)
Averaged from 28 records on October 9, 2013
WEATHER CONDITIONS BREAKOUT
WIND DIRECTION BREAKOUT
WEATHER BY HOUR - OCTOBER 9, 2013
[ °C ]   °F
Local TimeTemperatureDewpointHumidityBarometerVisibilityWind DirectionWind SpeedGust SpeedPrecipitationEventsConditions
1:00 AM80.6 °F64.4 °F58 %29.86 inWNW (300°)6.9 mphClear
2:00 AM77.0 °F65.0 °F58 %29.82 in12.0 miNNW (340°)4.6 mph
2:00 AM77.0 °F64.4 °F65 %29.83 inNNW (340°)4.6 mphClear
3:00 AM78.8 °F64.4 °F61 %29.86 inNW (310°)9.2 mphClear
4:00 AM77.0 °F66.2 °F69 %29.86 inNNW (330°)9.2 mphClear
5:00 AM77.0 °F66.2 °F69 %29.89 inNNW (330°)5.8 mphClear
6:00 AM77.0 °F66.2 °F69 %29.89 inNorth (360°)4.6 mphClear
7:00 AM84.2 °F68.0 °F58 %29.92 inNNE (20°)9.2 mphClear
8:00 AM87.0 °F67.0 °F43 %29.92 in12.0 miNorth12.7 mph
8:00 AM87.8 °F68.0 °F52 %29.95 inNorth (360°)12.7 mphClear
9:00 AM89.6 °F66.2 °F46 %29.95 inNNW (330°)10.4 mphClear
10:00 AM93.2 °F64.4 °F38 %29.95 in6.2 miNNE (20°)11.5 mphPartly Cloudy
11:00 AM95.0 °F64.4 °F36 %29.92 in6.2 miNNW (340°)10.4 mphScattered Clouds
12:00 PM96.8 °F64.4 °F34 %29.89 in6.2 miNNE (20°)10.4 mphPartly Cloudy
1:00 PM96.8 °F64.4 °F34 %29.83 in6.2 miNW (320°)11.5 mphPartly Cloudy
2:00 PM82.0 °F65.0 °F46 %29.82 in6.0 miESE (120°)23.0 mphThunderstormThunderstorm
2:00 PM82.4 °F64.4 °F54 %6.2 miESE (120°)23.0 mph34.5 mphThunderstormThunderstorm
2:11 PM75.2 °F66.2 °F73 %29.83 in1.9 miESE (120°)23.0 mph34.5 mphRain-ThunderstormThunderstorms and Rain
3:00 PM73.4 °F64.4 °F73 %29.83 in3.7 miEast (90°)9.2 mphRain-ThunderstormLight Thunderstorms and Rain
4:00 PM77.0 °F66.2 °F69 %6.2 miNorth (350°)10.4 mphRain-ThunderstormLight Thunderstorms and Rain
5:00 PM78.8 °F60.8 °F54 %29.83 in6.2 miWNW (300°)10.4 mphMostly Cloudy
6:00 PM77.0 °F68.0 °F74 %6.2 miSouth (180°)4.6 mphMostly Cloudy
7:00 PM75.2 °F69.8 °F83 %29.86 in6.2 miSSE (160°)3.5 mphMostly Cloudy
8:00 PM77.0 °F65.0 °F59 %29.84 in12.0 miNW (320°)11.5 mphPartly Cloudy
8:00 PM77.0 °F66.2 °F69 %29.86 in6.2 miNW (320°)11.5 mphMostly Cloudy
9:00 PM73.4 °F66.2 °F78 %29.86 in6.2 miNorth (350°)3.5 mphMostly Cloudy
10:00 PM75.2 °F68.0 °F78 %29.89 in6.2 miWNW (300°)3.5 mphScattered Clouds
11:00 PM75.2 °F68.0 °F78 %29.89 in6.2 miNW (320°)5.8 mphScattered Clouds
Hourly data recorded from SBCY, located miles away from Cuiaba, Mato Grosso







STORIES FROM OUR PARTNERS